Location: Hradec Kralove
(50.2170°N, 15.8330°E)
Time: 11:43:39
(UTC+02:00)

Tiangong - Visible Passes

Search period start: 30 May 2024 00:00
Search period end: 09 June 2024 00:00
Orbit: 369 x 373 km, 41.5° (Epoch: 29 May)

Date Brightness Start Highest point End Pass type
(mag) Time Alt. Az. Time Alt. Az. Time Alt. Az.
30 May -0.3 04:01:17 10° SW 04:03:10 15° S 04:05:03 10° SSE visible
31 May -0.2 03:00:13 15° SSE 03:00:13 15° SSE 03:01:28 10° SE visible
01 Jun -0.3 03:31:26 14° SSW 03:31:30 14° SSW 03:33:09 10° SSE visible
06 Jun -0.2 22:42:08 10° SSW 22:43:11 14° S 22:43:11 14° S visible
07 Jun 0.1 23:13:43 10° SW 23:14:17 13° SW 23:14:17 13° SW visible
08 Jun -0.4 22:09:42 10° SW 22:11:42 16° S 22:13:07 12° SE visible
